FW5750 Weather Reports


time (UTC)temp
C
wind
direction
speed
KPH
gust
KPH
rain 1hr
cm
rain 24hr
cm
rain mn
cm
humidity
%
barometer
mb
20260505035526 15 285 0.0 0.0 0.00 0.00 0.00 72 1013.5
20260505035022 15 285 0.0 0.0 0.00 0.00 0.00 72 1013.7
20260505034519 15 285 0.0 0.0 0.00 0.00 0.00 73 1013.7
20260505034016 16 280 0.0 0.0 0.00 0.00 0.00 69 1013.6
20260505033513 16 274 0.0 0.0 0.00 0.00 0.00 68 1013.4
20260505033011 16 289 0.0 0.0 0.00 0.00 0.00 67 1013.7
20260505032508 17 289 0.0 0.0 0.00 0.00 0.00 67 1013.6
20260505032005 17 274 0.0 0.0 0.00 0.00 0.00 63 1013.5
20260505031502 17 273 0.0 3.2 0.00 0.00 0.00 60 1013.8
20260505030958 17 269 0.0 0.0 0.00 0.00 0.00 57 1013.7
20260505030455 18 285 0.0 0.0 0.00 0.00 0.00 56 1013.8
20260505025950 18 271 1.6 4.8 0.00 0.00 0.00 56 1013.7
20260505025447 18 290 0.0 0.0 0.00 0.00 0.00 56 1013.9
20260505024946 18 267 0.0 3.2 0.00 0.00 0.00 57 1013.6
20260505024443 18 267 0.0 3.2 0.00 0.00 0.00 55 1013.8
20260505023940 18 276 0.0 0.0 0.00 0.00 0.00 55 1013.7
20260505023437 18 276 0.0 3.2 0.00 0.00 0.00 55 1013.8
20260505022934 19 288 0.0 3.2 0.00 0.00 0.00 52 1013.8
20260505022432 19 279 3.2 3.2 0.00 0.00 0.00 52 1013.8
20260505021929 19 277 4.8 8.0 0.00 0.00 0.00 54 1013.6
20260505021425 19 270 0.0 3.2 0.00 0.00 0.00 52 1013.6
20260505020921 20 264 0.0 3.2 0.00 0.00 0.00 51 1013.7
20260505020416 20 233 8.0 11.3 0.00 0.00 0.00 51 1013.8
20260505015913 20 284 0.0 3.2 0.00 0.00 0.00 51 1013.7
20260505015411 20 265 3.2 8.0 0.00 0.00 0.00 51 1013.5
20260505014908 20 312 1.6 11.3 0.00 0.00 0.00 52 1013.6
20260505014405 20 290 1.6 8.0 0.00 0.00 0.00 53 1013.7
20260505013902 20 267 3.2 4.8 0.00 0.00 0.00 54 1013.6
20260505013358 20 285 1.6 4.8 0.00 0.00 0.00 54 1013.4
20260505012857 20 273 0.0 3.2 0.00 0.00 0.00 55 1013.5
20260505012354 20 272 1.6 4.8 0.00 0.00 0.00 54 1013.5
20260505011850 20 250 0.0 4.8 0.00 0.00 0.00 54 1013.4
20260505011347 20 266 1.6 3.2 0.00 0.00 0.00 54 1013.4
20260505010843 20 277 1.6 8.0 0.00 0.00 0.00 54 1013.3
20260505010339 21 249 3.2 3.2 0.00 0.00 0.00 54 1013.3
20260505005836 21 259 3.2 4.8 0.00 0.00 0.00 54 1013.2
20260505005333 21 265 0.0 8.0 0.00 0.00 0.00 54 1013.4
20260505004830 21 300 1.6 4.8 0.00 0.00 0.00 54 1013.3
20260505004326 21 246 3.2 8.0 0.00 0.00 0.00 53 1013.3
20260505003824 21 278 0.0 4.8 0.00 0.00 0.00 53 1013.2
20260505003321 21 280 1.6 3.2 0.00 0.00 0.00 53 1013.0
20260505002817 21 277 0.0 4.8 0.00 0.00 0.00 54 1013.1
20260505002314 21 284 0.0 3.2 0.00 0.00 0.00 54 1013.4
20260505001812 21 257 1.6 4.8 0.00 0.00 0.00 54 1012.9
20260505001309 21 267 1.6 3.2 0.00 0.00 0.00 53 1013.1
20260505000806 22 272 3.2 11.3 0.00 0.00 0.00 52 1013.1
20260505000304 22 265 1.6 3.2 0.00 0.00 0.00 51 1012.8
20260504235800 22 261 8.0 11.3 0.00 0.00 0.00 51 1012.9
20260504235256 22 270 1.6 3.2 0.00 0.00 0.00 50 1013.0
20260504234754 22 227 1.6 4.8 0.00 0.00 0.00 50 1013.0
20260504234252 22 291 6.4 12.9 0.00 0.00 0.00 49 1012.8
20260504233748 22 270 6.4 11.3 0.00 0.00 0.00 49 1012.9
20260504233243 22 258 4.8 8.0 0.00 0.00 0.00 49 1012.9
20260504232740 22 265 3.2 4.8 0.00 0.00 0.00 49 1012.9
20260504232237 23 253 4.8 4.8 0.00 0.00 0.00 49 1012.8
20260504231734 23 265 0.0 4.8 0.00 0.00 0.00 50 1012.8
20260504231230 23 283 3.2 12.9 0.00 0.00 0.00 49 1012.9
20260504230727 23 285 4.8 11.3 0.00 0.00 0.00 50 1012.9
20260504230225 23 259 1.6 3.2 0.00 0.00 0.00 50 1012.8
20260504225724 23 258 3.2 4.8 0.00 0.00 0.00 49 1012.7
20260504225219 23 306 1.6 4.8 0.00 0.00 0.00 49 1012.6
20260504224717 23 289 3.2 3.2 0.00 0.00 0.00 49 1012.8
20260504224214 23 274 1.6 4.8 0.00 0.00 0.00 49 1012.7
20260504223710 23 273 1.6 4.8 0.00 0.00 0.00 49 1012.8
20260504223205 23 271 0.0 4.8 0.00 0.00 0.00 48 1012.9
20260504222703 23 272 0.0 3.2 0.00 0.00 0.00 48 1012.8
20260504222200 23 259 3.2 4.8 0.00 0.00 0.00 46 1012.8
20260504221657 23 285 1.6 8.0 0.00 0.00 0.00 46 1012.8
20260504221154 24 276 1.6 4.8 0.00 0.00 0.00 45 1012.8
20260504220650 24 294 3.2 8.0 0.00 0.00 0.00 44 1013.0
20260504220148 24 269 4.8 11.3 0.00 0.00 0.00 44 1012.9
20260504215644 24 266 3.2 8.0 0.00 0.00 0.00 44 1013.0
20260504215142 25 264 3.2 11.3 0.00 0.00 0.00 43 1012.9
20260504214637 25 286 3.2 12.9 0.00 0.00 0.00 42 1012.8
20260504214134 25 250 6.4 11.3 0.00 0.00 0.00 43 1013.0
20260504213630 25 278 3.2 8.0 0.00 0.00 0.00 42 1012.9
20260504213127 25 262 3.2 11.3 0.00 0.00 0.00 43 1012.9
20260504212624 26 313 6.4 11.3 0.00 0.00 0.00 42 1012.8
20260504212121 25 274 6.4 12.9 0.00 0.00 0.00 41 1012.9
20260504211618 26 232 1.6 17.7 0.00 0.00 0.00 41 1013.0
20260504211114 26 30 3.2 11.3 0.00 0.00 0.00 41 1013.1
20260504210612 26 261 4.8 8.0 0.00 0.00 0.00 42 1012.9
20260504210108 26 254 4.8 12.9 0.00 0.00 0.00 41 1013.0
20260504205606 26 243 9.7 12.9 0.00 0.00 0.00 40 1012.9
20260504205103 26 273 3.2 8.0 0.00 0.00 0.00 44 1013.1
20260504204601 26 253 4.8 12.9 0.00 0.00 0.00 42 1013.2
20260504204100 25 253 4.8 8.0 0.00 0.00 0.00 42 1013.2
20260504203558 25 258 6.4 11.3 0.00 0.00 0.00 42 1013.4
20260504203055 25 258 9.7 20.9 0.00 0.00 0.00 43 1013.5
20260504202550 26 270 11.3 12.9 0.00 0.00 0.00 43 1013.6
20260504202048 26 242 6.4 11.3 0.00 0.00 0.00 46 1013.2
20260504201545 26 307 1.6 3.2 0.00 0.00 0.00 44 1013.5
20260504201043 25 274 1.6 8.0 0.00 0.00 0.00 46 1013.7
20260504200538 25 285 1.6 4.8 0.00 0.00 0.00 46 1013.5
20260504200036 25 252 4.8 11.3 0.00 0.00 0.00 45 1013.8
20260504195532 25 223 8.0 12.9 0.00 0.00 0.00 45 1014.0
20260504195028 25 247 3.2 8.0 0.00 0.00 0.00 45 1013.8
20260504194525 25 262 3.2 12.9 0.00 0.00 0.00 46 1014.0
20260504194020 25 263 4.8 8.0 0.00 0.00 0.00 47 1013.8
20260504193517 25 281 0.0 8.0 0.00 0.00 0.00 49 1014.0
20260504193016 25 271 1.6 11.3 0.00 0.00 0.00 48 1013.9
20260504192514 25 255 4.8 8.0 0.00 0.00 0.00 47 1014.3
20260504192012 25 287 1.6 12.9 0.00 0.00 0.00 46 1014.4
20260504191509 25 272 1.6 8.0 0.00 0.00 0.00 47 1014.6
20260504191005 25 263 6.4 11.3 0.00 0.00 0.00 47 1014.6
20260504190501 25 278 3.2 4.8 0.00 0.00 0.00 46 1014.7
20260504185957 25 257 4.8 8.0 0.00 0.00 0.00 47 1014.9
20260504185455 24 283 4.8 8.0 0.00 0.00 0.00 47 1014.8
20260504184951 24 303 4.8 8.0 0.00 0.00 0.00 47 1014.8
20260504184447 24 250 3.2 8.0 0.00 0.00 0.00 47 1014.9
20260504183942 24 257 8.0 16.1 0.00 0.00 0.00 47 1015.2
20260504183440 24 267 8.0 12.9 0.00 0.00 0.00 47 1015.1
20260504182938 25 275 1.6 8.0 0.00 0.00 0.00 47 1015.1
20260504182434 25 269 3.2 4.8 0.00 0.00 0.00 48 1015.0
20260504181932 24 266 3.2 4.8 0.00 0.00 0.00 48 1015.4
20260504181429 24 280 4.8 8.0 0.00 0.00 0.00 47 1015.3
20260504180927 24 279 0.0 4.8 0.00 0.00 0.00 48 1015.5
20260504180426 24 284 1.6 4.8 0.00 0.00 0.00 49 1015.3
20260504175924 23 249 3.2 8.0 0.00 0.00 0.00 48 1015.5
20260504175420 23 241 6.4 8.0 0.00 0.00 0.00 46 1015.4
20260504174918 23 280 1.6 4.8 0.00 0.00 0.00 48 1015.7
20260504174415 23 267 4.8 11.3 0.00 0.00 0.00 51 1015.7
20260504173913 23 220 8.0 12.9 0.00 0.00 0.00 49 1015.6
20260504173409 23 268 1.6 4.8 0.00 0.00 0.00 53 1015.7
20260504172907 22 291 3.2 12.9 0.00 0.00 0.00 48 1015.7
20260504172403 22 238 6.4 8.0 0.00 0.00 0.00 47 1015.7
20260504171859 22 230 4.8 16.1 0.00 0.00 0.00 47 1015.9
20260504171356 22 265 0.0 4.8 0.00 0.00 0.00 49 1016.0
20260504170853 23 218 8.0 11.3 0.00 0.00 0.00 47 1016.0
20260504170349 23 270 4.8 8.0 0.00 0.00 0.00 48 1016.1
20260504160308 20 266 4.8 8.0 0.00 0.00 0.00 51 1017.1
20260504150733 17 281 0.0 4.8 0.00 0.00 0.00 56 1017.8
20260504150230 17 305 4.8 8.0 0.00 0.00 0.00 57 1017.9
20260504141159 16 288 0.0 3.2 0.00 0.00 0.00 63 1018.3
20260504140656 15 131 0.0 3.2 0.00 0.00 0.00 62 1018.6
20260504140152 15 264 1.6 4.8 0.00 0.00 0.00 63 1018.6
20260504130620 11 280 0.0 0.0 0.00 0.00 0.00 96 1018.7
20260504130117 10 272 0.0 3.2 0.00 0.00 0.00 99 1018.5
20260504110508 3 276 0.0 0.0 0.00 0.00 0.00 99 1017.6
20260504100430 3 276 0.0 0.0 0.00 0.00 0.00 99 1017.8
20260504081823 4 276 0.0 0.0 0.00 0.00 0.00 99 1017.8
20260504081320 4 276 0.0 0.0 0.00 0.00 0.00 99 1017.9
20260504080816 4 276 0.0 0.0 0.00 0.00 0.00 99 1017.8
20260504080313 4 276 0.0 0.0 0.00 0.00 0.00 99 1017.8
20260504070240 5 276 0.0 0.0 0.00 0.00 0.00 99 1017.7
20260504060201 5 276 0.0 0.0 0.00 0.00 0.00 99 1018.2
20260504050629 6 276 0.0 0.0 0.00 0.00 0.00 99 1018.2
20260504050126 6 276 0.0 0.0 0.00 0.00 0.00 99 1018.2
20260504045623 6 276 0.0 0.0 0.00 0.00 0.00 99 1018.3
20260504045118 6 276 0.0 0.0 0.00 0.00 0.00 99 1018.1
20260504044616 6 276 0.0 0.0 0.00 0.00 0.00 99 1018.1
20260504044112 6 276 0.0 0.0 0.00 0.00 0.00 99 1018.1
20260504043610 6 276 0.0 0.0 0.00 0.00 0.00 99 1018.0
20260504043107 6 276 0.0 0.0 0.00 0.00 0.00 99 1018.1
20260504042604 6 276 0.0 0.0 0.00 0.00 0.00 99 1017.8
20260504042101 6 276 0.0 0.0 0.00 0.00 0.00 99 1018.0
20260504041556 6 276 0.0 0.0 0.00 0.00 0.00 99 1017.9
20260504041053 6 276 0.0 0.0 0.00 0.00 0.00 99 1017.8
20260504040550 6 276 0.0 0.0 0.00 0.00 0.00 99 1017.8
20260504040047 6 276 0.0 0.0 0.00 0.00 0.00 99 1018.0
20260504035544 6 276 0.0 0.0 0.00 0.00 0.00 99 1017.8